KD4WOZ Weather Reports


Display with metric or nautical units.
time (UTC)temp
F
wind
direction
speed
MPH
gust
MPH
rain 1hr
in
rain 24hr
in
rain mn
in
humidity
%
barometer
mb
20260505183303 83 221 11.0 21.0 0.00 0.00 0.00 32 1012.6
20260505182305 82 242 9.0 22.0 0.00 0.00 0.00 34 1012.6
20260505181801 82 217 12.0 22.0 0.00 0.00 0.00 34 1012.8
20260505181302 82 221 13.0 19.0 0.00 0.00 0.00 33 1012.7
20260505180803 82 269 8.0 20.0 0.00 0.00 0.00 34 1012.7
20260505180302 82 286 12.0 20.0 0.00 0.00 0.00 33 1012.8
20260505175803 82 162 9.0 19.0 0.00 0.00 0.00 35 1012.8
20260505175305 82 261 6.0 15.0 0.00 0.00 0.00 35 1012.8
20260505174804 81 273 10.0 17.0 0.00 0.00 0.00 35 1012.8
20260505174302 81 243 11.0 17.0 0.00 0.00 0.00 35 1012.8
20260505173801 81 226 9.0 18.0 0.00 0.00 0.00 36 1012.7
20260505173303 81 217 9.0 18.0 0.00 0.00 0.00 36 1012.8
20260505172305 81 286 7.0 17.0 0.00 0.00 0.00 36 1012.9
20260505171802 80 224 7.0 16.0 0.00 0.00 0.00 37 1013.1
20260505171302 80 213 11.0 17.0 0.00 0.00 0.00 38 1013.0
20260505170803 80 243 7.0 17.0 0.00 0.00 0.00 40 1013.1
20260505170302 80 198 8.0 19.0 0.00 0.00 0.00 40 1013.2
20260505165803 80 221 10.0 19.0 0.00 0.00 0.00 39 1013.5
20260505165305 80 205 9.0 16.0 0.00 0.00 0.00 40 1013.4
20260505164803 79 207 7.0 16.0 0.00 0.00 0.00 40 1013.5
20260505164300 79 200 9.0 16.0 0.00 0.00 0.00 41 1013.5
20260505163301 78 202 11.0 16.0 0.00 0.00 0.00 41 1013.6
20260505162301 78 228 10.0 20.0 0.00 0.00 0.00 42 1013.7
20260505161800 78 259 10.0 20.0 0.00 0.00 0.00 42 1013.9
20260505161301 78 240 8.0 15.0 0.00 0.00 0.00 45 1013.9
20260505160801 77 237 10.0 15.0 0.00 0.00 0.00 46 1014.0
20260505160301 77 248 8.0 15.0 0.00 0.00 0.00 44 1013.9
20260505152250 75 277 9.0 19.0 0.00 0.00 0.00 46 1013.9
20260505151242 75 246 6.0 16.0 0.00 0.00 0.00 47 1013.9
20260505150738 75 231 4.0 14.0 0.00 0.00 0.00 49 1014.0
20260505150239 74 211 9.0 14.0 0.00 0.00 0.00 49 1013.9
20260505140230 71 279 8.0 20.0 0.00 0.00 0.00 54 1014.0
20260505130229 68 207 8.0 15.0 0.00 0.00 0.00 59 1014.0
20260505124215 67 281 10.0 19.0 0.00 0.00 0.00 61 1014.0
20260505123711 67 219 8.0 15.0 0.00 0.00 0.00 62 1014.0
20260505123211 66 222 11.0 15.0 0.00 0.00 0.00 62 1014.0
20260505122707 66 261 9.0 16.0 0.00 0.00 0.00 63 1014.0
20260505122203 66 267 9.0 16.0 0.00 0.00 0.00 63 1014.0
20260505121203 65 230 7.0 18.0 0.00 0.00 0.00 65 1013.9
20260505120702 65 261 7.0 16.0 0.00 0.00 0.00 65 1013.8
20260505115701 65 252 8.0 17.0 0.00 0.00 0.00 66 1013.8
20260505115202 64 261 6.0 17.0 0.00 0.00 0.00 67 1013.8
20260505114702 64 262 8.0 15.0 0.00 0.00 0.00 66 1013.7
20260505114202 64 232 6.0 15.0 0.00 0.00 0.00 67 1013.6
20260505113703 64 247 6.0 15.0 0.00 0.00 0.00 68 1013.6
20260505112701 64 264 7.0 19.0 0.00 0.00 0.00 67 1013.5
20260505111203 63 269 8.0 20.0 0.00 0.00 0.00 68 1013.3
20260505110704 63 271 10.0 20.0 0.00 0.00 0.00 67 1013.3
20260505110202 63 289 11.0 24.0 0.00 0.00 0.00 68 1013.2
20260505102205 63 263 11.0 17.0 0.00 0.00 0.00 68 1012.9
20260505101702 63 274 11.0 17.0 0.00 0.00 0.00 68 1012.8
20260505101201 63 254 11.0 17.0 0.00 0.00 0.00 68 1012.8
20260505100701 63 299 11.0 17.0 0.00 0.00 0.00 68 1012.8
20260505100201 63 252 11.0 17.0 0.00 0.00 0.00 68 1012.8
20260505095658 63 273 12.0 16.0 0.00 0.00 0.00 68 1012.8
20260505094650 63 255 11.0 17.0 0.00 0.00 0.00 68 1012.7
20260505093643 63 262 9.0 15.0 0.00 0.00 0.00 68 1012.7
20260505093139 63 264 9.0 15.0 0.00 0.00 0.00 68 1012.6
20260505092635 63 260 11.0 17.0 0.00 0.00 0.00 68 1012.5
20260505092130 63 261 10.0 17.0 0.00 0.00 0.00 68 1012.6
20260505091629 63 255 9.0 15.0 0.00 0.00 0.00 68 1012.5
20260505091129 63 255 9.0 15.0 0.00 0.00 0.00 68 1012.5
20260505090629 63 236 10.0 19.0 0.00 0.00 0.00 67 1012.5
20260505090129 63 267 11.0 19.0 0.00 0.00 0.00 67 1012.5
20260505085630 63 252 11.0 18.0 0.00 0.00 0.00 67 1012.5
20260505085129 63 270 8.0 15.0 0.00 0.00 0.00 68 1012.6
20260505084129 63 275 9.0 16.0 0.00 0.00 0.00 68 1012.6
20260505083630 63 236 5.0 15.0 0.00 0.00 0.00 68 1012.7
20260505083129 64 273 7.0 15.0 0.00 0.00 0.00 67 1012.7
20260505081629 64 250 7.0 13.0 0.00 0.00 0.00 67 1012.7
20260505081128 64 264 7.0 15.0 0.00 0.00 0.00 67 1012.6
20260505080629 64 252 7.0 15.0 0.00 0.00 0.00 66 1012.5
20260505080130 64 244 9.0 15.0 0.00 0.00 0.00 66 1012.5
20260505075628 64 223 8.0 16.0 0.00 0.00 0.00 66 1012.5
20260505075130 64 264 9.0 20.0 0.00 0.00 0.00 66 1012.5
20260505074630 64 254 9.0 20.0 0.00 0.00 0.00 66 1012.5
20260505074130 64 261 8.0 18.0 0.00 0.00 0.00 66 1012.5
20260505073626 64 242 9.0 18.0 0.00 0.00 0.00 66 1012.5
20260505072617 65 255 10.0 18.0 0.00 0.00 0.00 65 1012.4
20260505071110 65 259 9.0 18.0 0.00 0.00 0.00 66 1012.3
20260505070605 65 281 7.0 16.0 0.00 0.00 0.00 66 1012.3
20260505070104 65 275 8.0 16.0 0.00 0.00 0.00 66 1012.2
20260505065602 65 250 9.0 16.0 0.00 0.00 0.00 66 1012.2
20260505064601 65 285 8.0 17.0 0.00 0.00 0.00 66 1012.2
20260505064101 65 267 8.0 15.0 0.00 0.00 0.00 66 1012.3
20260505063600 65 264 9.0 19.0 0.00 0.00 0.00 66 1012.2
20260505063100 65 262 11.0 19.0 0.00 0.00 0.00 65 1012.4
20260505062601 65 275 10.0 16.0 0.00 0.00 0.00 65 1012.4
20260505062101 65 275 9.0 14.0 0.00 0.00 0.00 65 1012.4
20260505060601 65 275 6.0 15.0 0.00 0.00 0.00 66 1012.4
20260505060100 65 220 9.0 15.0 0.00 0.00 0.00 66 1012.4
20260505055603 65 242 7.0 13.0 0.00 0.00 0.00 66 1012.4
20260505055102 65 240 7.0 13.0 0.00 0.00 0.00 65 1012.4
20260505054101 66 246 10.0 16.0 0.00 0.00 0.00 65 1012.5
20260505053603 66 278 4.0 14.0 0.00 0.00 0.00 65 1012.5
20260505052602 66 218 8.0 17.0 0.00 0.00 0.00 65 1012.6
20260505052102 66 234 5.0 17.0 0.00 0.00 0.00 65 1012.5
20260505051602 66 199 6.0 13.0 0.00 0.00 0.00 65 1012.6
20260505051102 66 244 6.0 13.0 0.00 0.00 0.00 65 1012.5
20260505050602 66 211 7.0 13.0 0.00 0.00 0.00 65 1012.5
20260505041602 67 204 8.0 15.0 0.00 0.00 0.00 67 1012.5
20260505040604 67 261 6.0 17.0 0.00 0.00 0.00 67 1012.5
20260505035102 67 180 7.0 17.0 0.00 0.00 0.00 67 1012.4
20260505034602 67 206 9.0 17.0 0.00 0.00 0.00 67 1012.4
20260505034102 67 195 9.0 15.0 0.00 0.00 0.00 67 1012.4
20260505033602 67 209 6.0 15.0 0.00 0.00 0.00 67 1012.3
20260505033102 67 231 9.0 15.0 0.00 0.00 0.00 67 1012.4
20260505032603 67 206 11.0 15.0 0.00 0.00 0.00 67 1012.3
20260505032102 67 164 7.0 14.0 0.00 0.00 0.00 67 1012.4
20260505031603 67 254 8.0 14.0 0.00 0.00 0.00 67 1012.4
20260505031102 67 246 7.0 15.0 0.00 0.00 0.00 66 1012.3
20260505030601 67 211 9.0 16.0 0.00 0.00 0.00 66 1012.3
20260505025601 67 232 9.0 14.0 0.00 0.00 0.00 63 1012.3
20260505025101 67 219 8.0 13.0 0.00 0.00 0.00 62 1012.4
20260505023606 68 191 6.0 13.0 0.00 0.00 0.00 61 1012.3
20260505023103 68 222 8.0 13.0 0.00 0.00 0.00 63 1012.2
20260505022102 67 217 5.0 10.0 0.00 0.00 0.00 53 1012.2
20260505021601 67 219 4.0 8.0 0.00 0.00 0.00 54 1012.1
20260505021100 67 242 3.0 8.0 0.00 0.00 0.00 55 1012.0
20260505020600 66 225 3.0 7.0 0.00 0.00 0.00 57 1011.8
20260505015101 64 190 2.0 5.0 0.00 0.00 0.00 66 1011.9
20260505014601 63 221 2.0 4.0 0.00 0.00 0.00 69 1011.8
20260505014102 62 188 2.0 4.0 0.00 0.00 0.00 73 1011.9
20260505013602 62 247 2.0 3.0 0.00 0.00 0.00 77 1011.9
20260505013101 62 205 1.0 3.0 0.00 0.00 0.00 80 1012.0
20260505012601 62 233 0.0 3.0 0.00 0.00 0.00 81 1012.1
20260505012100 63 217 0.0 2.0 0.00 0.00 0.00 82 1011.9
20260505011602 63 234 0.0 2.0 0.00 0.00 0.00 82 1011.9
20260505011101 63 234 1.0 2.0 0.00 0.00 0.00 82 1011.9
20260505010603 63 234 1.0 3.0 0.00 0.00 0.00 82 1011.9
20260505005602 64 212 2.0 5.0 0.00 0.00 0.00 82 1011.8
20260505005102 64 211 2.0 8.0 0.00 0.00 0.00 82 1011.7
20260505004101 64 205 5.0 7.0 0.00 0.00 0.00 82 1011.5
20260505003602 64 211 3.0 5.0 0.00 0.00 0.00 81 1011.5
20260505003101 64 194 3.0 5.0 0.00 0.00 0.00 80 1011.4
20260505002601 64 192 3.0 6.0 0.00 0.00 0.00 80 1011.4
20260505002101 64 198 4.0 7.0 0.00 0.00 0.00 80 1011.3
20260505001601 64 209 4.0 7.0 0.00 0.00 0.00 79 1011.4
20260505001100 65 198 4.0 7.0 0.00 0.00 0.00 78 1011.4
20260505000558 65 198 5.0 7.0 0.00 0.00 0.00 77 1011.4
20260505000058 65 187 3.0 7.0 0.00 0.00 0.00 76 1011.3
20260504235555 65 176 3.0 7.0 0.00 0.00 0.00 75 1011.3
20260504235052 65 202 2.0 6.0 0.00 0.00 0.00 74 1011.3
20260504234548 66 203 3.0 6.0 0.00 0.00 0.00 73 1011.2
20260504232535 66 205 4.0 9.0 0.00 0.00 0.00 70 1011.1
20260504232032 67 229 5.0 9.0 0.00 0.00 0.00 69 1011.0
20260504231532 67 213 5.0 8.0 0.00 0.00 0.00 68 1011.0
20260504231029 67 183 4.0 10.0 0.00 0.00 0.00 67 1010.9
20260504230529 67 201 5.0 11.0 0.00 0.00 0.00 66 1010.9
20260504230029 67 198 4.0 11.0 0.00 0.00 0.00 66 1011.0
20260504225029 68 210 6.0 10.0 0.00 0.00 0.00 64 1011.0
20260504224029 68 185 6.0 11.0 0.00 0.00 0.00 61 1011.1
20260504223529 69 209 6.0 12.0 0.00 0.00 0.00 61 1011.1
20260504223029 69 193 6.0 12.0 0.00 0.00 0.00 61 1011.1
20260504222029 69 187 6.0 10.0 0.00 0.00 0.00 61 1011.2
20260504221530 69 205 3.0 9.0 0.00 0.00 0.00 61 1011.2
20260504221031 69 147 5.0 11.0 0.00 0.00 0.00 61 1011.3
20260504220529 69 196 8.0 11.0 0.00 0.00 0.00 61 1011.2
20260504220030 69 188 5.0 10.0 0.00 0.00 0.00 60 1011.2
20260504215529 69 192 6.0 10.0 0.00 0.00 0.00 62 1011.1
20260504214527 69 180 5.0 11.0 0.00 0.00 0.00 61 1011.3
20260504214022 70 181 9.0 11.0 0.00 0.00 0.00 60 1011.3
20260504213518 70 154 6.0 13.0 0.00 0.00 0.00 58 1011.3
20260504212511 70 174 6.0 15.0 0.00 0.00 0.00 58 1011.3
20260504212007 70 200 6.0 13.0 0.00 0.00 0.00 60 1011.3
20260504211501 70 176 6.0 13.0 0.00 0.00 0.00 58 1011.4
20260504211001 70 204 5.0 12.0 0.00 0.00 0.00 57 1011.3
20260504210501 70 178 8.0 11.0 0.00 0.00 0.00 57 1011.3
20260504210001 70 218 6.0 13.0 0.00 0.00 0.00 59 1011.4
20260504205502 70 181 5.0 13.0 0.00 0.00 0.00 59 1011.2
20260504205001 71 192 6.0 12.0 0.00 0.00 0.00 58 1011.3
20260504204003 71 186 7.0 13.0 0.00 0.00 0.00 56 1011.3
20260504203002 71 207 7.0 13.0 0.00 0.00 0.00 56 1011.4
20260504202503 71 170 9.0 16.0 0.00 0.00 0.00 53 1011.5
20260504202002 70 204 9.0 16.0 0.00 0.00 0.00 52 1011.5
20260504201503 70 219 5.0 12.0 0.00 0.00 0.00 58 1011.6
20260504200502 68 170 7.0 12.0 0.00 0.00 0.00 63 1011.7
20260504195502 68 218 6.0 13.0 0.00 0.00 0.00 65 1011.9
20260504194502 68 179 8.0 20.0 0.00 0.00 0.00 63 1011.8
20260504194002 69 186 7.0 14.0 0.00 0.00 0.00 63 1011.9
20260504193501 69 133 5.0 12.0 0.00 0.00 0.00 64 1011.8
20260504193002 69 159 6.0 11.0 0.00 0.00 0.00 65 1011.8
20260504192503 69 202 6.0 11.0 0.00 0.00 0.00 65 1011.9
20260504192003 69 132 6.0 13.0 0.00 0.00 0.00 65 1011.9
20260504191502 69 202 5.0 14.0 0.00 0.00 0.00 64 1012.2
20260504190004 69 115 6.0 11.0 0.00 0.00 0.00 62 1012.3
20260504185502 69 153 7.0 14.0 0.00 0.00 0.00 63 1012.3
20260504184508 69 207 7.0 14.0 0.00 0.00 0.00 60 1012.5
20260504184002 69 211 6.0 14.0 0.00 0.00 0.00 56 1012.7